[[{"header":{"parameterUnit":"m.s-1","parameterCategory":1,"la1":30.2991,"la2":30.254,"lo1":-89.0895,"lo2":-89.0444,"dy":0.0017,"dx":0.0017,"nx":28,"ny":28,"refTime":"2024-05-26T09:00:00:Z","depth":0,"parameterNumber":2,"parameterNumberName":"U-component_of_WINDS"},"data":[0,0,0,0,0,0,0,0,0,0,0,0,0,0,0,0,0,0,0,0,0,0,0,0,0,0,0,0,0,0,0,0,0,0,0,0,0,0,0,0,0,0,0,0,0,0,0,0,0,0,0,0,0,0,0,0,0,0,0.8156,0.8156,0,0.8206,0.8207,0.8207,0.8203,0.8202,0.8201,0.8201,0.8253,0.8255,0.8257,0,0,0,0,0,0,0,0,0,0,0,0,0,0.8055,0.8057,0.8156,0.8156,0.8157,0.8206,0.8207,0.8207,0.8203,0.8202,0.8201,0.82,0.8252,0.8255,0.8257,0,0,0,0,0,0,0,0,0,0,0,0,0,0.8101,0.8057,0.8155,0.8161,0.8162,0.8206,0.8207,0.8208,0.8203,0.8202,0.8201,0.82,0.8252,0.8255,0.8258,0.8301,0,0,0.8268,0.8269,0,0,0,0,0,0,0,0,0.8099,0.8105,0.8159,0.816,0.8161,0.8197,0.819,0.8239,0.8204,0.8187,0.8201,0.8199,0.8235,0.824,0.8252,0.8303,0.8305,0.8268,0.827,0.8271,0.8272,0,0,0,0,0,0,0,0.8095,0.8103,0.8176,0.816,0.8161,0.816,0.8166,0.82,0.8217,0.8189,0.8189,0.8195,0.8236,0.8249,0.8253,0.8306,0.8268,0.8271,0.8272,0.8274,0.8393,0.8394,0,0,0,0,0,0,0.8091,0.81,0.8174,0.8177,0.8127,0.8163,0.8169,0.8187,0.8217,0.822,0.8196,0.8194,0.8244,0.8249,0.8255,0.8306,0.8271,0.8274,0.8276,0.8392,0.8393,0.8395,0,0,0,0,0,0,0.8089,0.8098,0.8172,0.8139,0.8148,0.8166,0.8186,0.8188,0.8201,0.8222,0.8225,0.8206,0.8243,0.825,0.8289,0.8307,0.8275,0.8278,0.839,0.8392,0.8394,0.8408,0,0,0,0,0,0,0.8086,0.8097,0.8113,0.8139,0.815,0.8205,0.8187,0.819,0.8207,0.8206,0.8232,0.8236,0.8243,0.8284,0.8292,0.8311,0.8281,0.8389,0.8391,0.8394,0.8406,0.841,0.8414,0,0,0,0,0,0.8082,0.8116,0.8114,0.8123,0.8171,0.8206,0.8212,0.822,0.8208,0.8225,0.8238,0.8235,0.8304,0.8288,0.8297,0.8317,0.8388,0.8391,0.8393,0.8404,0.841,0.8414,0,0,0,0,0,0,0.8092,0.8119,0.8118,0.8161,0.8181,0.8205,0.8226,0.8225,0.825,0.8247,0.8256,0.8262,0.83,0.8313,0.8294,0.836,0.8345,0.8349,0.835,0.8355,0.8359,0.8354,0.8283,0,0,0,0,0,0.8099,0.8126,0.8148,0.8184,0.8194,0.8208,0.8224,0.8228,0.825,0.8258,0.8274,0.8296,0.8322,0.8339,0.8365,0.8408,0.8413,0.8427,0.8431,0.8434,0.8437,0.846,0.8466,0.8404,0.8404,0.8404,0,0,0.8114,0.8132,0.8149,0.8186,0.8202,0.8229,0.8216,0.8245,0.8265,0.8263,0.8299,0.8312,0.8336,0.8377,0.8396,0.8389,0.8456,0.8437,0.844,0.8442,0.8463,0.8469,0.8474,0.8406,0.8406,0.8406,0,0,0.8155,0.8172,0.8202,0.8219,0.8244,0.8253,0.826,0.8285,0.8293,0.833,0.8328,0.8352,0.8398,0.8415,0.843,0.8476,0.8474,0.8484,0.8504,0.8526,0.8531,0.8535,0.8551,0.8556,0.8488,0.8488,0.8488,0,0.817,0.8211,0.8218,0.8247,0.8263,0.8263,0.8293,0.8309,0.8341,0.8352,0.8344,0.84,0.8417,0.8461,0.8472,0.8484,0.8492,0.8481,0.853,0.8534,0.8538,0.8553,0.8559,0.8489,0.8489,0.8489,0.8489,0,0.8228,0.8256,0.8278,0.8308,0.8326,0.8356,0.8368,0.8386,0.8388,0.8398,0.8436,0.8455,0.8484,0.8495,0.8498,0.8539,0.8534,0.8528,0.8512,0.8545,0.8559,0.8565,0.8491,0.849,0.849,0.849,0,0,0.8275,0.8309,0.8317,0.833,0.8357,0.8379,0.8408,0.8436,0.8451,0.8473,0.8497,0.8536,0.853,0.8547,0.8551,0.8571,0.8605,0.8562,0.8563,0.8568,0.865,0.8653,0.866,0.8604,0.8605,0.8606,0.8647,0,0.8318,0.837,0.8377,0.8423,0.8448,0.8448,0.8473,0.8492,0.8503,0.8526,0.8537,0.8564,0.8555,0.8564,0.8584,0.8596,0.8621,0.8594,0.8626,0.8627,0.8618,0.8667,0.8671,0.871,0.8653,0.8654,0.8655,0,0.8374,0.8396,0.8445,0.8467,0.8478,0.8501,0.8526,0.8549,0.857,0.8576,0.8595,0.8597,0.8627,0.8611,0.8653,0.8634,0.8648,0.8656,0.8658,0.866,0.8642,0.867,0.8722,0.8727,0.8664,0.8663,0.8662,0,0.8402,0.8445,0.8479,0.849,0.8518,0.8534,0.8546,0.8566,0.8582,0.8605,0.8615,0.8642,0.8656,0.8676,0.8685,0.8673,0.8726,0.8711,0.8731,0.8731,0.8741,0.874,0.8795,0.8752,0.8752,0.8752,0.8752,0,0.8447,0.8476,0.8491,0.8512,0.8545,0.8553,0.8585,0.8597,0.8615,0.8638,0.864,0.8661,0.8672,0.8695,0.8703,0.8736,0.8742,0.8748,0.8749,0.8747,0.8746,0.8755,0.8752,0.8753,0.8753,0.8753,0.8753,0,0.8484,0.8495,0.8532,0.8555,0.8561,0.8584,0.8603,0.8623,0.8633,0.8662,0.867,0.8685,0.8713,0.8724,0.8758,0.8763,0.88,0.88,0.8792,0.8792,0.8811,0.8809,0.8873,0.8882,0.8834,0.8835,0.8835,0,0.8511,0.8533,0.8558,0.8574,0.8586,0.8611,0.8627,0.8636,0.8653,0.8679,0.8696,0.8723,0.8745,0.8788,0.8803,0.8828,0.8828,0.8849,0.8832,0.8829,0.8827,0.8825,0.8827,0.8852,0.8852,0.8853,0.8853,0,0.8558,0.8563,0.8586,0.8611,0.863,0.865,0.867,0.8682,0.8694,0.8713,0.874,0.8758,0.8792,0.8818,0.8845,0.8857,0.8857,0.8859,0.8864,0.8861,0.8855,0.8858,0.8799,0.8857,0.8856,0.8856,0.8856,0.8856,0.859,0.8609,0.863,0.8655,0.8671,0.8689,0.8709,0.8721,0.8744,0.8772,0.8776,0.8805,0.8826,0.8861,0.8875,0.8898,0.8893,0.8901,0.8903,0.8905,0.8905,0.8853,0.8903,0.8903,0.8903,0.8903,0.8903,0,0.8636,0.8649,0.8673,0.87,0.8719,0.8718,0.8739,0.8756,0.8781,0.88,0.8822,0.8853,0.8879,0.8895,0.8921,0.8936,0.8937,0.8943,0.8941,0.8944,0.8909,0.8901,0.8942,0.8942,0.8942,0.8942,0.8942,0.8942,0.8662,0.8694,0.8701,0.8741,0.8754,0.8782,0.8794,0.8811,0.8826,0.886,0.8882,0.8892,0.891,0.8937,0.8961,0.8965,0.8974,0.898,0.8984,0.8951,0.8947,0.8943,0.8935,0.8982,0.8982,0.9016,0.9017,0.9017]},{"header":{"parameterUnit":"m.s-1","parameterCategory":1,"la1":30.2991,"la2":30.254,"lo1":-89.0895,"lo2":-89.0444,"dy":0.0017,"dx":0.0017,"nx":28,"ny":28,"refTime":"2024-05-26T09:00:00:Z","depth":0,"parameterNumber":3,"parameterNumberName":"V-component_of_WINDS"},"data":[0,0,0,0,0,0,0,0,0,0,0,0,0,0,0,0,0,0,0,0,0,0,0,0,0,0,0,0,0,0,0,0,0,0,0,0,0,0,0,0,0,0,0,0,0,0,0,0,0,0,0,0,0,0,0,0,0,0,5.0732,5.0733,0,5.0835,5.0836,5.0837,5.0808,5.0805,5.0803,5.0801,5.0901,5.0905,5.091,0,0,0,0,0,0,0,0,0,0,0,0,0,5.0501,5.0506,5.0732,5.0733,5.0734,5.0835,5.0836,5.0838,5.0808,5.0805,5.0803,5.08,5.0899,5.0905,5.091,0,0,0,0,0,0,0,0,0,0,0,0,0,5.0602,5.0507,5.0731,5.0732,5.0733,5.0835,5.0836,5.0838,5.0809,5.0805,5.0802,5.0799,5.0898,5.0904,5.0911,5.1017,0,0,5.0932,5.0935,0,0,0,0,0,0,0,0,5.0597,5.0611,5.073,5.0732,5.0733,5.0805,5.0791,5.0898,5.0809,5.078,5.0801,5.0798,5.0871,5.088,5.0906,5.1022,5.1026,5.0933,5.0937,5.094,5.0942,0,0,0,0,0,0,0,5.059,5.0606,5.0772,5.0732,5.0734,5.0724,5.0735,5.0811,5.0842,5.0782,5.078,5.0793,5.0871,5.09,5.0908,5.1027,5.0933,5.0939,5.0943,5.0946,5.1232,5.1235,0,0,0,0,0,0,5.0583,5.0601,5.0769,5.0775,5.0656,5.0731,5.0743,5.0785,5.0841,5.0846,5.0796,5.0791,5.0889,5.09,5.0912,5.1038,5.094,5.0946,5.095,5.1228,5.1233,5.1236,0,0,0,0,0,0,5.0578,5.0598,5.0765,5.0688,5.0708,5.0738,5.0786,5.0789,5.0817,5.0851,5.0856,5.082,5.0887,5.0902,5.0991,5.1041,5.0949,5.0956,5.1224,5.123,5.1235,5.1291,0,0,0,0,0,0,5.0571,5.0597,5.0639,5.0689,5.0712,5.0845,5.0789,5.0793,5.083,5.0825,5.0875,5.088,5.0886,5.0981,5.0998,5.1049,5.0961,5.122,5.1227,5.1233,5.1285,5.1298,5.1309,0,0,0,0,0,5.0563,5.065,5.0641,5.0662,5.0766,5.0848,5.0861,5.0868,5.0834,5.0876,5.0897,5.0878,5.1033,5.099,5.1009,5.1063,5.1217,5.1225,5.1232,5.128,5.1295,5.1309,0,0,0,0,0,0,5.0603,5.0656,5.0647,5.0753,5.0797,5.0843,5.0895,5.0885,5.0937,5.093,5.0934,5.0946,5.1036,5.1058,5.101,5.1167,5.1119,5.1131,5.1149,5.1164,5.1176,5.1168,5.0967,0,0,0,0,0,5.0625,5.0688,5.0731,5.082,5.0842,5.0865,5.0901,5.0903,5.0947,5.0964,5.0992,5.1034,5.1091,5.1129,5.1184,5.1288,5.1297,5.1334,5.1346,5.1356,5.1366,5.142,5.1437,5.1262,5.1262,5.1262,0,0,5.0669,5.0706,5.0745,5.0829,5.0862,5.0926,5.0881,5.095,5.0996,5.0974,5.106,5.1082,5.1128,5.1225,5.1269,5.1246,5.1416,5.1366,5.1373,5.1378,5.143,5.1446,5.1461,5.1267,5.1266,5.1265,0,0,5.0781,5.0817,5.0895,5.0929,5.0981,5.0996,5.1014,5.1063,5.1077,5.1163,5.1147,5.1201,5.1301,5.1334,5.1364,5.1488,5.1472,5.1506,5.1567,5.162,5.1634,5.1646,5.1689,5.1704,5.1516,5.1516,5.1516,0,5.0829,5.0927,5.0935,5.1006,5.1042,5.1026,5.1103,5.1136,5.1202,5.1226,5.12,5.1324,5.1354,5.1458,5.1488,5.1513,5.1533,5.15,5.1632,5.1644,5.1656,5.1696,5.1712,5.152,5.1519,5.1519,5.1519,0,5.0982,5.1049,5.1105,5.1172,5.1214,5.1287,5.1304,5.1346,5.1343,5.136,5.1447,5.1483,5.1544,5.1569,5.1567,5.1671,5.1655,5.1631,5.1583,5.1676,5.1714,5.173,5.1525,5.1524,5.1523,5.1522,0,0,5.1122,5.1193,5.1213,5.1242,5.1298,5.1349,5.142,5.1482,5.1516,5.1562,5.1621,5.1705,5.1683,5.1717,5.1718,5.1765,5.1859,5.1735,5.1736,5.1755,5.1974,5.1991,5.2009,5.1849,5.1852,5.1854,5.1969,0,5.1239,5.1367,5.1376,5.1491,5.1552,5.1537,5.1599,5.1639,5.1656,5.1708,5.1726,5.1785,5.1752,5.1772,5.1818,5.1838,5.1902,5.183,5.1901,5.1903,5.1888,5.2029,5.2048,5.2155,5.1984,5.1987,5.1989,0,5.1392,5.1444,5.1566,5.1612,5.1638,5.1694,5.175,5.1801,5.1844,5.1853,5.1891,5.1886,5.1956,5.1907,5.2003,5.1953,5.1982,5.1996,5.2,5.2006,5.1951,5.2037,5.2189,5.2205,5.2012,5.2011,5.2009,0,5.148,5.1581,5.1666,5.1692,5.1748,5.1787,5.1812,5.1852,5.1888,5.1937,5.196,5.2015,5.2045,5.2087,5.2096,5.2059,5.2191,5.2143,5.2198,5.2198,5.2225,5.2223,5.2383,5.2247,5.2247,5.2246,5.2246,0,5.1609,5.1683,5.1706,5.1759,5.1841,5.1849,5.1929,5.1951,5.1987,5.2041,5.2032,5.2082,5.2091,5.2143,5.215,5.2227,5.2241,5.2248,5.2249,5.2249,5.2247,5.2267,5.2259,5.2251,5.225,5.2249,5.2248,0,5.1721,5.174,5.1832,5.1877,5.1891,5.1949,5.1987,5.2035,5.2051,5.212,5.2136,5.216,5.2221,5.2234,5.2305,5.231,5.2401,5.2395,5.2387,5.2386,5.244,5.2434,5.2616,5.264,5.249,5.2491,5.2492,0,5.1801,5.1858,5.191,5.1947,5.1974,5.2033,5.207,5.2079,5.2118,5.2171,5.2213,5.2273,5.2321,5.2418,5.244,5.2494,5.2488,5.2548,5.2496,5.2493,5.2487,5.2483,5.2488,5.2558,5.2559,5.2561,5.2562,0,5.194,5.1947,5.2001,5.206,5.2104,5.215,5.2193,5.2223,5.2238,5.2281,5.2344,5.2382,5.2455,5.2513,5.2567,5.259,5.2578,5.2578,5.2593,5.2593,5.2585,5.2588,5.2412,5.2574,5.2572,5.2571,5.2571,5.257,5.2038,5.2087,5.2131,5.2192,5.2226,5.2266,5.2314,5.2336,5.239,5.2451,5.2453,5.2521,5.256,5.2632,5.2658,5.2709,5.269,5.2713,5.2718,5.2724,5.2728,5.2578,5.2719,5.2719,5.2719,5.2718,5.2718,0,5.2175,5.2203,5.2259,5.232,5.2367,5.2354,5.2401,5.244,5.2501,5.254,5.2588,5.2659,5.2716,5.2742,5.2798,5.2833,5.2829,5.2847,5.2844,5.2849,5.2742,5.2723,5.285,5.285,5.285,5.285,5.285,5.285,5.2252,5.2334,5.2346,5.2444,5.247,5.2538,5.2566,5.2602,5.2634,5.2714,5.2761,5.2779,5.2813,5.287,5.2921,5.2927,5.2947,5.2967,5.2971,5.287,5.2857,5.2844,5.2826,5.2972,5.2972,5.3073,5.3074,5.3075]}]]